Flag for Canada Weather past 2 weeks in St. John's, Newfoundland and Labrador, Canada

Now
55 °F

Sprinkles. Fog.


Feels Like: 53 °F
Forecast: 57 / 66 °F
Wind: 10 mph from Northeast

Location: St. John's

Current Time: Aug 28, 2014 at 11:35:21 AM

Latest Report: Aug 28, 2014 at 10:30 AM


Visibility: 0 mi

Pressure: 29.85 "Hg

Humidity: 100%

Dew point: 55 °F

Location of St. John'sLocation

Historic Weather in St. John's — Graph

°F

St. John's temperature yesterday

Maximum temperature yesterday: 75 °F (at 1:30 PM)
Minimum temperature yesterday: 59 °F (at 12:30 AM)
Average temperature yesterday: 66 °F

Past Weeks' High & Low Weather Summary

 TemperatureHumidityPressure
High75 °F (Aug 27, 1:30 PM)100% (Aug 13, 10:30 AM)30.22 "Hg (Aug 13, 10:30 AM)
Low50 °F (Aug 25, 12:30 AM)61% (Aug 25, 2:30 PM)29.68 "Hg (Aug 19, 8:30 AM)
Average59 °F91%30.00 "Hg
* Reported Aug 13 10:30 AM — Aug 28 10:30 AM, St. John's, Weather by CustomWeather, © 2014

Note: Actual official high and low records may vary slightly from our data, if they occured in-between our weather recording intervals... More about our weather records

Advertising

St. John's weather history for previous 24 hours

 ConditionsComfort  
Time TempWeatherWind HumidityBarometerVisibility
10:30 AM
Aug 28
55 °FSprinkles. Fog.10 mph100%29.85 "Hg0 mi
9:30 AM55 °FSprinkles. Fog.14 mph100%29.84 "Hg0 mi
8:30 AM54 °FSprinkles. Fog.12 mph100%29.83 "Hg0 mi
7:30 AM54 °FCool.8 mph100%29.83 "Hg0 mi
6:30 AM54 °FSprinkles. Fog.12 mph100%29.82 "Hg1 mi
5:30 AM55 °FSprinkles. Fog.12 mph100%29.80 "Hg1 mi
4:30 AM55 °FSprinkles. Fog.12 mph100%29.80 "Hg1 mi
3:30 AM61 °FSprinkles. Fog.10 mph88%29.79 "Hg1 mi
2:30 AM64 °FSprinkles. Mostly cloudy.15 mph94%29.78 "Hg12 mi
1:30 AM63 °FPassing clouds.9 mph100%29.78 "Hg15 mi
12:30 AM64 °FPartly cloudy.15 mph94%29.78 "Hg15 mi
11:30 PM
Aug 27
64 °FPartly cloudy.17 mph88%29.78 "Hg15 mi
10:30 PM64 °FMostly cloudy.20 mph88%29.77 "Hg15 mi
9:30 PM64 °FPassing clouds.22 mph88%29.78 "Hg15 mi
8:30 PM64 °FPassing clouds.17 mph88%29.78 "Hg15 mi
7:30 PM66 °FPassing clouds.17 mph83%29.78 "Hg15 mi
6:30 PM68 °FScattered clouds.18 mph78%29.80 "Hg15 mi
5:30 PM70 °FPartly sunny.17 mph73%29.79 "Hg15 mi
4:30 PM72 °FPartly sunny.23 mph69%29.79 "Hg15 mi
3:30 PM75 °FPassing clouds.25 mph65%29.80 "Hg15 mi
2:30 PM73 °FPassing clouds.29 mph61%29.83 "Hg15 mi
1:30 PM75 °FPassing clouds.23 mph61%29.83 "Hg15 mi
12:30 PM73 °FScattered clouds.21 mph65%29.85 "Hg15 mi
11:30 AM72 °FScattered clouds.25 mph69%29.87 "Hg15 mi
Weather by CustomWeather, © 2014

See weather overviewHow to use our weather pages